sat.trackr.live / text

‹ back to catalog

HULIANWANG DIGUI-31

NORAD 64284 · 2025-121B

PAYLOAD ACTIVE UNKNOWN

§ Identity

Operator
Country
PRC
Launch date
2025-06-05
Launch site
TAISC
Launch vehicle
Mass (kg)
RCS (m²)

External: N2YO · Heavens-Above · Gunter

§ Orbital elements

Epoch: 2026-09-21T22:30:29.079648Z

Period
108.73 min
Inclination
86.5063°
Eccentricity
0.0001679
Mean motion
13.24412180 rev/d
Perigee alt
1,166.6 km
Apogee alt
1,169.2 km
Semi-major
7,546.1 km
B*
6.5046e-5
RAAN
341.0247°
Arg perigee
108.4154°
Mean anomaly
251.7162°
Rev number
6,296

§ Raw data

HULIANWANG DIGUI-311 64284U 25121B   26264.93783657  .00000043  00000+0  65046-4 0  99942 64284  86.5063 341.0247 0001679 108.4154 251.7162 13.24412180 62964

JSON: /api/v1/satellites/64284 · /tle

For live sub-satellite position, see the globe view (requires WebGL).

§ Visibility from observer

Set your observer location to see the next 7 days of passes ≥ 10°. The values pass through the URL so the page stays shareable.

No JS? Fill the form by hand. The geolocation button needs JavaScript.